Time,TemperatureF,DewpointF,PressureIn,WindDirection,WindDirectionDegrees,WindSpeedMPH,WindSpeedGustMPH,Humidity,HourlyPrecipIn,Conditions,Clouds,dailyrainin,SoftwareType,DateUTC
2013-02-17 00:02:00,27.0,16.0,29.72,NE,48,7.0,-999.0,63,-99.99,,,-99.99,,2013-02-17 05:02:00,
2013-02-17 00:12:00,27.0,16.0,29.71,NNE,32,8.0,-999.0,63,-99.99,,,-99.99,,2013-02-17 05:12:00,
2013-02-17 00:22:00,27.0,16.0,29.71,NNE,32,8.0,-999.0,63,-99.99,,,-99.99,,2013-02-17 05:22:00,
2013-02-17 00:33:00,27.0,16.0,29.72,NE,52,7.0,-999.0,62,-99.99,,,-99.99,,2013-02-17 05:33:00,
2013-02-17 00:42:00,27.0,16.0,29.72,NE,52,7.0,-999.0,62,-99.99,,,-99.99,,2013-02-17 05:42:00,
2013-02-17 00:52:00,27.0,16.0,29.69,NE,51,10.0,-999.0,63,-99.99,,,-99.99,,2013-02-17 05:52:00,
2013-02-17 01:02:00,26.0,15.0,29.71,NE,41,10.0,-999.0,62,-99.99,,,-99.99,,2013-02-17 06:02:00,
2013-02-17 01:11:00,26.0,15.0,29.71,NE,41,10.0,-999.0,62,-99.99,,,-99.99,,2013-02-17 06:11:00,
2013-02-17 01:21:00,27.0,15.0,29.71,NNE,12,9.0,-999.0,61,-99.99,,,-99.99,,2013-02-17 06:21:00,
2013-02-17 01:32:00,26.0,14.0,29.70,North,349,8.0,-999.0,60,-99.99,,,-99.99,,2013-02-17 06:32:00,
2013-02-17 01:42:00,26.0,14.0,29.70,North,349,8.0,-999.0,60,-99.99,,,-99.99,,2013-02-17 06:42:00,
2013-02-17 01:52:00,26.0,14.0,29.71,NE,54,7.0,-999.0,60,-99.99,,,-99.99,,2013-02-17 06:52:00,
2013-02-17 02:01:00,26.0,14.0,29.71,NE,54,7.0,-999.0,60,-99.99,,,-99.99,,2013-02-17 07:01:00,
2013-02-17 02:11:00,26.0,14.0,29.71,NE,54,7.0,-999.0,60,-99.99,,,-99.99,,2013-02-17 07:11:00,
2013-02-17 02:21:00,26.0,14.0,29.71,NE,54,7.0,-999.0,60,-99.99,,,-99.99,,2013-02-17 07:21:00,
2013-02-17 02:32:00,25.0,11.0,29.67,NNE,23,7.0,-999.0,55,-99.99,,,-99.99,,2013-02-17 07:32:00,
2013-02-17 02:42:00,25.0,11.0,29.67,NNE,23,7.0,-999.0,55,-99.99,,,-99.99,,2013-02-17 07:42:00,
2013-02-17 02:52:00,25.0,11.0,29.67,NNE,23,7.0,-999.0,55,-99.99,,,-99.99,,2013-02-17 07:52:00,
2013-02-17 03:01:00,25.0,11.0,29.67,NNE,23,7.0,-999.0,55,-99.99,,,-99.99,,2013-02-17 08:01:00,
2013-02-17 03:11:00,25.0,11.0,29.67,NNE,23,7.0,-999.0,55,-99.99,,,-99.99,,2013-02-17 08:11:00,
2013-02-17 03:21:00,24.0,10.0,29.68,NNW,333,4.0,-999.0,54,-99.99,,,-99.99,,2013-02-17 08:21:00,
2013-02-17 03:32:00,24.0,9.0,29.67,North,4,7.0,-999.0,52,-99.99,,,-99.99,,2013-02-17 08:32:00,
2013-02-17 03:42:00,24.0,9.0,29.67,North,4,7.0,-999.0,52,-99.99,,,-99.99,,2013-02-17 08:42:00,
2013-02-17 03:52:00,24.0,9.0,29.67,North,4,7.0,-999.0,52,-99.99,,,-99.99,,2013-02-17 08:52:00,
2013-02-17 04:02:00,24.0,7.0,29.66,NNE,33,7.0,-999.0,48,-99.99,,,-99.99,,2013-02-17 09:02:00,
2013-02-17 04:11:00,24.0,7.0,29.66,NNE,33,7.0,-999.0,48,-99.99,,,-99.99,,2013-02-17 09:11:00,
2013-02-17 04:21:00,23.0,6.0,29.65,NNE,25,9.0,-999.0,47,-99.99,,,-99.99,,2013-02-17 09:21:00,
2013-02-17 04:32:00,23.0,5.0,29.66,NNW,340,9.0,-999.0,45,-99.99,,,-99.99,,2013-02-17 09:32:00,
2013-02-17 04:42:00,23.0,5.0,29.66,NNW,340,9.0,-999.0,45,-99.99,,,-99.99,,2013-02-17 09:42:00,
2013-02-17 04:52:00,23.0,6.0,29.65,NNE,24,9.0,-999.0,47,-99.99,,,-99.99,,2013-02-17 09:52:00,
2013-02-17 05:01:00,23.0,6.0,29.65,NNE,24,9.0,-999.0,47,-99.99,,,-99.99,,2013-02-17 10:01:00,
2013-02-17 05:11:00,23.0,6.0,29.65,NNE,24,9.0,-999.0,47,-99.99,,,-99.99,,2013-02-17 10:11:00,
2013-02-17 05:21:00,21.0,4.0,29.65,ENE,63,9.0,-999.0,48,-99.99,,,-99.99,,2013-02-17 10:21:00,
2013-02-17 05:32:00,21.0,5.0,29.65,NE,35,8.0,-999.0,50,-99.99,,,-99.99,,2013-02-17 10:32:00,
2013-02-17 05:42:00,21.0,5.0,29.65,NE,35,8.0,-999.0,50,-99.99,,,-99.99,,2013-02-17 10:42:00,
2013-02-17 05:52:00,21.0,6.0,29.64,NNE,28,9.0,-999.0,52,-99.99,,,-99.99,,2013-02-17 10:52:00,
2013-02-17 06:01:00,20.0,5.0,29.62,NNE,23,10.0,-999.0,51,-99.99,,,-99.99,,2013-02-17 11:01:00,
2013-02-17 06:11:00,20.0,5.0,29.62,NNE,23,10.0,-999.0,51,-99.99,,,-99.99,,2013-02-17 11:11:00,
2013-02-17 06:22:00,20.0,5.0,29.62,North,8,10.0,-999.0,51,-99.99,,,-99.99,,2013-02-17 11:22:00,
2013-02-17 06:32:00,20.0,5.0,29.63,NNE,12,5.0,-999.0,52,-99.99,,,-99.99,,2013-02-17 11:32:00,
2013-02-17 06:42:00,20.0,5.0,29.63,NNE,12,5.0,-999.0,52,-99.99,,,-99.99,,2013-02-17 11:42:00,
2013-02-17 06:53:00,20.0,5.0,29.62,NNE,14,9.0,-999.0,52,-99.99,,,-99.99,,2013-02-17 11:53:00,
2013-02-17 07:03:00,20.0,5.0,29.62,NNE,14,9.0,-999.0,52,-99.99,,,-99.99,,2013-02-17 12:03:00,
2013-02-17 07:11:00,20.0,5.0,29.62,NNE,14,9.0,-999.0,52,-99.99,,,-99.99,,2013-02-17 12:11:00,
2013-02-17 07:22:00,19.0,3.0,29.61,NE,48,12.0,-999.0,50,-99.99,,,-99.99,,2013-02-17 12:22:00,
2013-02-17 07:32:00,19.0,4.0,29.61,NNE,24,10.0,-999.0,51,-99.99,,,-99.99,,2013-02-17 12:32:00,
2013-02-17 07:42:00,19.0,4.0,29.61,NNE,24,10.0,-999.0,51,-99.99,,,-99.99,,2013-02-17 12:42:00,
2013-02-17 07:52:00,19.0,4.0,29.61,NW,319,12.0,-999.0,52,-99.99,,,-99.99,,2013-02-17 12:52:00,
2013-02-17 08:02:00,19.0,5.0,29.61,NNW,347,12.0,-999.0,54,-99.99,,,-99.99,,2013-02-17 13:02:00,
2013-02-17 08:12:00,19.0,5.0,29.61,NNW,347,12.0,-999.0,54,-99.99,,,-99.99,,2013-02-17 13:12:00,
2013-02-17 08:22:00,19.0,5.0,29.61,NNE,21,10.0,-999.0,53,-99.99,,,-99.99,,2013-02-17 13:22:00,
2013-02-17 08:32:00,19.0,5.0,29.61,West,280,9.0,-999.0,53,-99.99,,,-99.99,,2013-02-17 13:32:00,
2013-02-17 08:42:00,19.0,5.0,29.61,West,280,9.0,-999.0,53,-99.99,,,-99.99,,2013-02-17 13:42:00,
2013-02-17 08:52:00,19.0,4.0,29.60,NE,42,11.0,-999.0,52,-99.99,,,-99.99,,2013-02-17 13:52:00,
2013-02-17 09:01:00,19.0,4.0,29.60,NE,42,11.0,-999.0,52,-99.99,,,-99.99,,2013-02-17 14:01:00,
2013-02-17 09:11:00,19.0,4.0,29.60,NE,42,11.0,-999.0,52,-99.99,,,-99.99,,2013-02-17 14:11:00,
2013-02-17 09:22:00,19.0,4.0,29.59,NE,39,6.0,-999.0,52,-99.99,,,-99.99,,2013-02-17 14:22:00,
2013-02-17 09:32:00,19.0,4.0,29.58,NNE,33,11.0,-999.0,51,-99.99,,,-99.99,,2013-02-17 14:32:00,
2013-02-17 09:42:00,19.0,4.0,29.58,NNE,33,11.0,-999.0,51,-99.99,,,-99.99,,2013-02-17 14:42:00,
2013-02-17 09:53:00,19.0,4.0,29.58,NNE,33,11.0,-999.0,51,-99.99,,,-99.99,,2013-02-17 14:53:00,
2013-02-17 10:02:00,19.0,4.0,29.58,NNE,33,11.0,-999.0,51,-99.99,,,-99.99,,2013-02-17 15:02:00,
2013-02-17 10:11:00,19.0,4.0,29.58,NNE,33,11.0,-999.0,51,-99.99,,,-99.99,,2013-02-17 15:11:00,
2013-02-17 10:22:00,20.0,5.0,29.58,WNW,300,11.0,-999.0,52,-99.99,,,-99.99,,2013-02-17 15:22:00,
2013-02-17 10:32:00,20.0,5.0,29.59,NNW,331,15.0,-999.0,51,-99.99,,,-99.99,,2013-02-17 15:32:00,
2013-02-17 10:42:00,20.0,5.0,29.59,NNW,331,15.0,-999.0,51,-99.99,,,-99.99,,2013-02-17 15:42:00,
2013-02-17 10:52:00,20.0,5.0,29.59,North,359,10.0,-999.0,51,-99.99,,,-99.99,,2013-02-17 15:52:00,
2013-02-17 11:01:00,21.0,4.0,29.59,NNW,330,9.0,-999.0,48,-99.99,,,-99.99,,2013-02-17 16:01:00,
2013-02-17 11:12:00,21.0,4.0,29.59,NNW,330,9.0,-999.0,48,-99.99,,,-99.99,,2013-02-17 16:12:00,
2013-02-17 11:21:00,21.0,3.0,29.60,North,354,10.0,-999.0,45,-99.99,,,-99.99,,2013-02-17 16:21:00,
2013-02-17 11:32:00,21.0,3.0,29.60,North,354,12.0,-999.0,44,-99.99,,,-99.99,,2013-02-17 16:32:00,
2013-02-17 11:42:00,21.0,3.0,29.60,North,354,12.0,-999.0,44,-99.99,,,-99.99,,2013-02-17 16:42:00,
2013-02-17 11:52:00,22.0,4.0,29.60,NW,326,8.0,-999.0,45,-99.99,,,-99.99,,2013-02-17 16:52:00,
2013-02-17 12:02:00,22.0,2.0,29.61,NW,316,11.0,-999.0,41,-99.99,,,-99.99,,2013-02-17 17:02:00,
2013-02-17 12:11:00,22.0,2.0,29.61,NW,316,11.0,-999.0,41,-99.99,,,-99.99,,2013-02-17 17:11:00,
2013-02-17 12:21:00,22.0,2.0,29.60,North,359,14.0,-999.0,41,-99.99,,,-99.99,,2013-02-17 17:21:00,
2013-02-17 12:32:00,22.0,1.0,29.59,NE,47,15.0,-999.0,39,-99.99,,,-99.99,,2013-02-17 17:32:00,
2013-02-17 12:42:00,22.0,1.0,29.59,NE,47,15.0,-999.0,39,-99.99,,,-99.99,,2013-02-17 17:42:00,
2013-02-17 12:52:00,23.0,2.0,29.60,North,4,13.0,-999.0,40,-99.99,,,-99.99,,2013-02-17 17:52:00,
2013-02-17 13:02:00,23.0,2.0,29.62,NNW,334,11.0,-999.0,40,-99.99,,,-99.99,,2013-02-17 18:02:00,
2013-02-17 13:11:00,23.0,2.0,29.62,NNW,334,11.0,-999.0,40,-99.99,,,-99.99,,2013-02-17 18:11:00,
2013-02-17 13:22:00,23.0,1.0,29.60,NE,49,12.0,-999.0,38,-99.99,,,-99.99,,2013-02-17 18:22:00,
2013-02-17 13:33:00,24.0,1.0,29.62,NNW,348,11.0,-999.0,36,-99.99,,,-99.99,,2013-02-17 18:33:00,
2013-02-17 13:42:00,24.0,1.0,29.62,NNW,348,11.0,-999.0,36,-99.99,,,-99.99,,2013-02-17 18:42:00,
2013-02-17 13:52:00,24.0,2.0,29.61,NNW,340,15.0,-999.0,37,-99.99,,,-99.99,,2013-02-17 18:52:00,
2013-02-17 14:01:00,25.0,1.0,29.62,NW,309,11.0,-999.0,34,-99.99,,,-99.99,,2013-02-17 19:01:00,
2013-02-17 14:11:00,25.0,1.0,29.62,NW,309,11.0,-999.0,34,-99.99,,,-99.99,,2013-02-17 19:11:00,
2013-02-17 14:22:00,25.0,1.0,29.62,NW,309,11.0,-999.0,34,-99.99,,,-99.99,,2013-02-17 19:22:00,
2013-02-17 14:32:00,25.0,0.0,29.62,NNE,15,14.0,-999.0,33,-99.99,,,-99.99,,2013-02-17 19:32:00,
2013-02-17 14:42:00,25.0,0.0,29.62,NNE,15,14.0,-999.0,33,-99.99,,,-99.99,,2013-02-17 19:42:00,
2013-02-17 14:52:00,25.0,0.0,29.63,WNW,285,13.0,-999.0,33,-99.99,,,-99.99,,2013-02-17 19:52:00,
2013-02-17 15:02:00,25.0,0.0,29.63,WNW,285,13.0,-999.0,33,-99.99,,,-99.99,,2013-02-17 20:02:00,
2013-02-17 15:11:00,25.0,0.0,29.63,WNW,285,13.0,-999.0,33,-99.99,,,-99.99,,2013-02-17 20:11:00,
2013-02-17 15:22:00,25.0,1.0,29.63,NNW,329,12.0,-999.0,34,-99.99,,,-99.99,,2013-02-17 20:22:00,
2013-02-17 15:32:00,24.0,0.0,29.64,NE,51,14.0,-999.0,34,-99.99,,,-99.99,,2013-02-17 20:32:00,
2013-02-17 15:43:00,24.0,0.0,29.64,NE,51,14.0,-999.0,34,-99.99,,,-99.99,,2013-02-17 20:43:00,
2013-02-17 15:52:00,25.0,1.0,29.65,West,278,12.0,-999.0,34,-99.99,,,-99.99,,2013-02-17 20:52:00,
2013-02-17 16:02:00,25.0,1.0,29.65,NNW,328,11.0,-999.0,35,-99.99,,,-99.99,,2013-02-17 21:02:00,
2013-02-17 16:11:00,25.0,1.0,29.65,NNW,328,11.0,-999.0,35,-99.99,,,-99.99,,2013-02-17 21:11:00,
2013-02-17 16:21:00,25.0,1.0,29.65,NW,308,8.0,-999.0,35,-99.99,,,-99.99,,2013-02-17 21:21:00,
2013-02-17 16:32:00,24.0,-1.0,29.67,NNE,18,11.0,-999.0,33,-99.99,,,-99.99,,2013-02-17 21:32:00,
2013-02-17 16:42:00,24.0,-1.0,29.67,NNE,18,11.0,-999.0,33,-99.99,,,-99.99,,2013-02-17 21:42:00,
2013-02-17 16:53:00,23.0,0.0,29.67,NNW,346,9.0,-999.0,36,-99.99,,,-99.99,,2013-02-17 21:53:00,
2013-02-17 17:01:00,23.0,0.0,29.68,NW,324,7.0,-999.0,36,-99.99,,,-99.99,,2013-02-17 22:01:00,
2013-02-17 17:12:00,23.0,0.0,29.68,NW,324,7.0,-999.0,36,-99.99,,,-99.99,,2013-02-17 22:12:00,
2013-02-17 17:22:00,23.0,1.0,29.69,NE,55,9.0,-999.0,38,-99.99,,,-99.99,,2013-02-17 22:22:00,
2013-02-17 17:32:00,22.0,1.0,29.70,NW,306,12.0,-999.0,39,-99.99,,,-99.99,,2013-02-17 22:32:00,
2013-02-17 17:42:00,22.0,1.0,29.70,NW,306,12.0,-999.0,39,-99.99,,,-99.99,,2013-02-17 22:42:00,
2013-02-17 17:52:00,21.0,0.0,29.71,North,359,12.0,-999.0,39,-99.99,,,-99.99,,2013-02-17 22:52:00,
2013-02-17 18:02:00,21.0,1.0,29.72,NNE,12,9.0,-999.0,40,-99.99,,,-99.99,,2013-02-17 23:02:00,
2013-02-17 18:11:00,21.0,1.0,29.72,NNE,12,9.0,-999.0,40,-99.99,,,-99.99,,2013-02-17 23:11:00,
2013-02-17 18:21:00,20.0,1.0,29.74,North,354,7.0,-999.0,43,-99.99,,,-99.99,,2013-02-17 23:21:00,
2013-02-17 18:32:00,20.0,1.0,29.74,North,354,7.0,-999.0,43,-99.99,,,-99.99,,2013-02-17 23:32:00,
2013-02-17 18:42:00,20.0,1.0,29.74,North,354,7.0,-999.0,43,-99.99,,,-99.99,,2013-02-17 23:42:00,
2013-02-17 18:52:00,19.0,1.0,29.75,NW,311,12.0,-999.0,44,-99.99,,,-99.99,,2013-02-17 23:52:00,
2013-02-17 19:01:00,19.0,1.0,29.75,West,262,12.0,-999.0,44,-99.99,,,-99.99,,2013-02-18 00:01:00,
2013-02-17 19:12:00,19.0,1.0,29.75,West,262,12.0,-999.0,44,-99.99,,,-99.99,,2013-02-18 00:12:00,
2013-02-17 19:22:00,18.0,0.0,29.75,WNW,291,12.0,-999.0,44,-99.99,,,-99.99,,2013-02-18 00:22:00,
2013-02-17 19:32:00,18.0,0.0,29.76,West,261,12.0,-999.0,44,-99.99,,,-99.99,,2013-02-18 00:32:00,
2013-02-17 19:41:00,18.0,0.0,29.76,West,261,12.0,-999.0,44,-99.99,,,-99.99,,2013-02-18 00:41:00,
2013-02-17 19:52:00,18.0,0.0,29.76,West,261,12.0,-999.0,44,-99.99,,,-99.99,,2013-02-18 00:52:00,
2013-02-17 20:01:00,17.0,0.0,29.78,NNW,332,9.0,-999.0,46,-99.99,,,-99.99,,2013-02-18 01:01:00,
2013-02-17 20:12:00,17.0,0.0,29.78,NNW,332,9.0,-999.0,46,-99.99,,,-99.99,,2013-02-18 01:12:00,
2013-02-17 20:21:00,16.0,-1.0,29.78,North,4,11.0,-999.0,46,-99.99,,,-99.99,,2013-02-18 01:21:00,
2013-02-17 20:32:00,16.0,-1.0,29.78,North,4,11.0,-999.0,46,-99.99,,,-99.99,,2013-02-18 01:32:00,
2013-02-17 20:42:00,16.0,-1.0,29.78,North,4,11.0,-999.0,46,-99.99,,,-99.99,,2013-02-18 01:42:00,
2013-02-17 20:52:00,16.0,0.0,29.80,NW,324,9.0,-999.0,48,-99.99,,,-99.99,,2013-02-18 01:52:00,
2013-02-17 21:02:00,15.0,-1.0,29.80,NNW,331,10.0,-999.0,49,-99.99,,,-99.99,,2013-02-18 02:02:00,
2013-02-17 21:11:00,15.0,-1.0,29.80,NNW,331,10.0,-999.0,49,-99.99,,,-99.99,,2013-02-18 02:11:00,
2013-02-17 21:22:00,15.0,0.0,29.81,North,349,7.0,-999.0,51,-99.99,,,-99.99,,2013-02-18 02:22:00,
2013-02-17 21:32:00,14.0,0.0,29.82,NNE,26,6.0,-999.0,52,-99.99,,,-99.99,,2013-02-18 02:32:00,
2013-02-17 21:42:00,14.0,0.0,29.82,NNE,26,6.0,-999.0,52,-99.99,,,-99.99,,2013-02-18 02:42:00,
2013-02-17 21:52:00,14.0,0.0,29.82,NNE,26,6.0,-999.0,52,-99.99,,,-99.99,,2013-02-18 02:52:00,
2013-02-17 22:01:00,14.0,0.0,29.83,NW,310,5.0,-999.0,54,-99.99,,,-99.99,,2013-02-18 03:01:00,
2013-02-17 22:11:00,14.0,0.0,29.83,NW,310,5.0,-999.0,54,-99.99,,,-99.99,,2013-02-18 03:11:00,
2013-02-17 22:22:00,14.0,1.0,29.83,NNW,330,6.0,-999.0,55,-99.99,,,-99.99,,2013-02-18 03:22:00,
2013-02-17 22:32:00,14.0,1.0,29.83,NNW,330,6.0,-999.0,55,-99.99,,,-99.99,,2013-02-18 03:32:00,
2013-02-17 22:42:00,14.0,1.0,29.83,NNW,330,6.0,-999.0,55,-99.99,,,-99.99,,2013-02-18 03:42:00,
2013-02-17 22:52:00,14.0,0.0,29.84,NW,324,7.0,-999.0,54,-99.99,,,-99.99,,2013-02-18 03:52:00,
2013-02-17 23:01:00,13.0,0.0,29.85,North,359,8.0,-999.0,55,-99.99,,,-99.99,,2013-02-18 04:01:00,
2013-02-17 23:11:00,13.0,0.0,29.85,North,359,8.0,-999.0,55,-99.99,,,-99.99,,2013-02-18 04:11:00,
2013-02-17 23:21:00,13.0,0.0,29.85,WNW,298,8.0,-999.0,55,-99.99,,,-99.99,,2013-02-18 04:21:00,
2013-02-17 23:32:00,13.0,0.0,29.85,WNW,298,8.0,-999.0,55,-99.99,,,-99.99,,2013-02-18 04:32:00,
2013-02-17 23:42:00,13.0,0.0,29.85,WNW,298,8.0,-999.0,55,-99.99,,,-99.99,,2013-02-18 04:42:00,
2013-02-17 23:52:00,13.0,0.0,29.85,North,4,6.0,-999.0,55,-99.99,,,-99.99,,2013-02-18 04:52:00,